User: anonymous   Login
Location: Strohbehn Observatory
(42.4649°N, 93.8239°W)
Time: 04:43:33
(UTC-05:00)
Language:

SL-16 R/B - Orbit

View from above orbital plane
View from above orbital plane
View from above satellite
View from above satellite

Ground track
Ground track

The orbit data is extracted from the following two-line orbital elements,

1 31793U 07029B   16208.84587966 -.00000084  00000-0 -18809-4 0  9995
2 31793  70.9757 352.5349 0002526 267.7994 254.6719 14.14359138468719
Epoch (UTC): 26 July 2016 20:18:04
Eccentricity: 0.0002526
inclination: 70.9757°
perigee height: 842 km
apogee height: 846 km
right ascension of ascending node: 352.5349°
argument of perigee: 267.7994°
revolutions per day: 14.14359138
mean anomaly at epoch: 254.6719°
orbit number at epoch: 46871

The dashed part of the orbit path shows where the satellite is in the earth's shadow,  

DLR